EW9805 Weather Reports


time (UTC)temp
F
wind
direction
speed
knots
gust
knots
rain 1hr
in
rain 24hr
in
rain mn
in
humidity
%
barometer
mb
20260506004816 76 205 7.0 15.6 0.00 0.00 0.00 34 1006.7
20260506004317 76 184 6.1 13.9 0.00 0.00 0.00 34 1006.6
20260506003817 76 211 9.6 13.9 0.00 0.00 0.00 34 1006.6
20260506003319 77 204 5.2 13.9 0.00 0.00 0.00 34 1006.6
20260506002819 77 239 7.0 11.3 0.00 0.00 0.00 34 1006.5
20260506002321 77 200 5.2 10.4 0.00 0.00 0.00 34 1006.4
20260506001820 77 209 5.2 11.3 0.00 0.00 0.00 34 1006.3
20260506001320 77 200 6.1 11.3 0.00 0.00 0.00 33 1006.3
20260506000821 77 183 5.2 13.9 0.00 0.00 0.00 33 1006.3
20260506000342 77 215 7.8 13.9 0.00 0.00 0.00 32 1006.3
20260505235820 78 221 7.0 9.6 0.00 0.00 0.00 32 1006.3
20260505235319 78 175 6.1 13.0 0.00 0.00 0.00 33 1006.4
20260505234818 78 197 5.2 13.0 0.00 0.00 0.00 33 1006.3
20260505234318 78 188 5.2 9.6 0.00 0.00 0.00 32 1006.2
20260505233821 78 205 5.2 16.5 0.00 0.00 0.00 32 1006.1
20260505233338 78 215 6.1 16.5 0.00 0.00 0.00 32 1006.1
20260505232820 78 252 7.0 13.0 0.00 0.00 0.00 32 1006.1
20260505232323 79 213 8.7 13.9 0.00 0.00 0.00 32 1006.1
20260505231844 79 242 7.0 17.4 0.00 0.00 0.00 32 1006.1
20260505231323 79 211 7.8 19.1 0.00 0.00 0.00 32 1006.1
20260505230824 79 223 8.7 19.1 0.00 0.00 0.00 32 1006.1
20260505230324 79 200 9.6 16.5 0.00 0.00 0.00 32 1006.0
20260505225824 79 187 7.8 22.6 0.00 0.00 0.00 32 1005.8
20260505225323 79 183 9.6 22.6 0.00 0.00 0.00 33 1005.7
20260505224824 79 232 8.7 14.8 0.00 0.00 0.00 33 1005.7
20260505224326 80 211 7.0 17.4 0.00 0.00 0.00 34 1005.7
20260505223827 80 188 7.8 17.4 0.00 0.00 0.00 33 1005.6
20260505223330 80 190 6.1 15.6 0.00 0.00 0.00 34 1005.5
20260505222811 80 207 7.8 13.9 0.00 0.00 0.00 34 1005.6
20260505222311 80 209 8.7 16.5 0.00 0.00 0.00 33 1005.5
20260505221834 80 227 10.4 16.5 0.00 0.00 0.00 33 1005.6
20260505221316 81 223 7.8 21.7 0.00 0.00 0.00 34 1005.6
20260505220814 81 233 11.3 21.7 0.00 0.00 0.00 33 1004.8
20260505220315 81 227 11.3 17.4 0.00 0.00 0.00 34 1004.9
20260505215836 80 247 8.7 18.2 0.00 0.00 0.00 33 1005.5
20260505215317 80 269 5.2 21.7 0.00 0.00 0.00 35 1005.2
20260505214817 81 229 10.4 17.4 0.00 0.00 0.00 34 1005.8
20260505214315 81 244 10.4 18.2 0.00 0.00 0.00 34 1005.5
20260505213815 81 196 7.8 16.5 0.00 0.00 0.00 35 1005.5
20260505213316 81 196 8.7 16.5 0.00 0.00 0.00 34 1005.6
20260505212816 81 232 7.8 20.0 0.00 0.00 0.00 34 1005.1
20260505212317 81 260 10.4 20.0 0.00 0.00 0.00 35 1005.0
20260505211818 81 176 10.4 20.9 0.00 0.00 0.00 34 1005.4
20260505211319 81 199 9.6 19.1 0.00 0.00 0.00 34 1005.4
20260505210838 81 182 10.4 19.1 0.00 0.00 0.00 33 1005.2
20260505210338 81 217 10.4 21.7 0.00 0.00 0.00 33 1005.4
20260505205816 82 263 11.3 20.9 0.00 0.00 0.00 33 1005.3
20260505205338 82 220 9.6 19.1 0.00 0.00 0.00 33 1005.4
20260505204818 82 200 8.7 19.1 0.00 0.00 0.00 33 1005.5
20260505204320 81 205 9.6 19.1 0.00 0.00 0.00 34 1005.6
20260505203820 81 174 9.6 20.0 0.00 0.00 0.00 35 1005.5
20260505203321 81 149 10.4 20.0 0.00 0.00 0.00 33 1005.6
20260505202821 81 163 13.0 19.1 0.00 0.00 0.00 34 1005.6
20260505202321 81 209 11.3 19.1 0.00 0.00 0.00 34 1005.6
20260505201820 82 207 9.6 14.8 0.00 0.00 0.00 35 1005.7
20260505201319 81 213 11.3 20.0 0.00 0.00 0.00 35 1005.6
20260505200818 81 188 11.3 20.0 0.00 0.00 0.00 36 1005.7
20260505200319 82 191 10.4 18.2 0.00 0.00 0.00 36 1005.7
20260505195820 81 209 8.7 19.1 0.00 0.00 0.00 36 1005.9
20260505195339 81 217 7.8 19.1 0.00 0.00 0.00 35 1005.9
20260505194819 81 201 8.7 19.1 0.00 0.00 0.00 35 1006.0
20260505194319 82 198 7.8 19.1 0.00 0.00 0.00 35 1006.0
20260505193818 82 198 7.8 18.2 0.00 0.00 0.00 35 1006.1
20260505193319 82 175 5.2 17.4 0.00 0.00 0.00 36 1006.0
20260505192820 81 217 8.7 15.6 0.00 0.00 0.00 37 1006.2
20260505192320 82 191 7.8 18.2 0.00 0.00 0.00 36 1006.2
20260505191820 81 221 10.4 18.2 0.00 0.00 0.00 36 1006.2
20260505191321 81 217 8.7 17.4 0.00 0.00 0.00 35 1006.4
20260505190822 81 223 7.0 19.1 0.00 0.00 0.00 37 1006.3
20260505190322 81 190 9.6 19.1 0.00 0.00 0.00 35 1006.4
20260505185841 82 240 9.6 17.4 0.00 0.00 0.00 35 1006.4
20260505185319 82 213 8.7 15.6 0.00 0.00 0.00 34 1006.5
20260505184820 82 259 8.7 16.5 0.00 0.00 0.00 36 1006.6
20260505184317 81 232 6.1 16.5 0.00 0.00 0.00 36 1006.6
20260505183839 81 226 7.0 14.8 0.00 0.00 0.00 35 1006.7
20260505183318 81 202 9.6 19.1 0.00 0.00 0.00 35 1006.8
20260505182818 81 211 7.8 17.4 0.00 0.00 0.00 35 1006.8
20260505182317 80 204 8.7 17.4 0.00 0.00 0.00 36 1006.9
20260505181838 81 233 7.0 17.4 0.00 0.00 0.00 35 1007.0
20260505181316 81 222 9.6 16.5 0.00 0.00 0.00 36 1006.9
20260505180816 80 166 11.3 16.5 0.00 0.00 0.00 35 1007.0
20260505180316 80 202 9.6 15.6 0.00 0.00 0.00 35 1007.1
20260505175815 80 227 7.8 13.0 0.00 0.00 0.00 36 1007.3
20260505175314 80 229 6.1 16.5 0.00 0.00 0.00 38 1007.3
20260505174835 80 167 7.8 16.5 0.00 0.00 0.00 37 1007.3
20260505174314 80 229 10.4 17.4 0.00 0.00 0.00 37 1007.3
20260505173814 80 227 9.6 15.6 0.00 0.00 0.00 37 1007.3
20260505173315 79 219 7.8 15.6 0.00 0.00 0.00 38 1007.2
20260505172814 79 211 10.4 18.2 0.00 0.00 0.00 36 1007.5
20260505172313 80 196 11.3 18.2 0.00 0.00 0.00 37 1007.5
20260505171833 79 223 7.0 16.5 0.00 0.00 0.00 38 1007.4
20260505171313 78 226 6.1 13.0 0.00 0.00 0.00 39 1007.4
20260505170814 78 265 7.0 17.4 0.00 0.00 0.00 37 1007.6
20260505170314 79 251 7.8 17.4 0.00 0.00 0.00 37 1007.5
20260505165814 79 264 6.1 13.9 0.00 0.00 0.00 36 1007.6
20260505165313 79 219 7.0 14.8 0.00 0.00 0.00 37 1007.8
20260505164812 80 215 7.8 14.8 0.00 0.00 0.00 35 1007.9
20260505164312 80 287 7.0 13.9 0.00 0.00 0.00 37 1007.9
20260505163812 79 257 7.0 14.8 0.00 0.00 0.00 36 1008.0
20260505163330 79 244 7.0 15.6 0.00 0.00 0.00 38 1008.1
20260505162848 79 273 9.6 15.6 0.00 0.00 0.00 36 1008.0
20260505162328 79 258 6.1 20.0 0.00 0.00 0.00 38 1008.2
20260505161829 79 262 11.3 20.0 0.00 0.00 0.00 37 1008.3
20260505161311 79 275 10.4 16.5 0.00 0.00 0.00 37 1008.3
20260505160811 78 254 7.0 14.8 0.00 0.00 0.00 39 1008.3
20260505160311 78 282 6.1 14.8 0.00 0.00 0.00 39 1008.3
20260505153312 77 209 4.3 8.7 0.00 0.00 0.00 45 1008.4
20260505152812 77 262 3.5 10.4 0.00 0.00 0.00 46 1008.5
20260505152314 77 226 7.0 9.6 0.00 0.00 0.00 45 1008.7
20260505151812 77 278 2.6 13.0 0.00 0.00 0.00 46 1008.6
20260505151313 76 233 5.2 13.0 0.00 0.00 0.00 44 1008.6
20260505150834 77 237 4.3 9.6 0.00 0.00 0.00 46 1008.6
20260505150312 76 226 2.6 9.6 0.00 0.00 0.00 48 1008.6
20260505140311 71 203 6.1 8.7 0.00 0.00 0.00 54 1009.2
20260505124833 64 213 3.5 7.0 0.00 0.00 0.00 65 1009.9
20260505124312 64 234 3.5 6.1 0.00 0.00 0.00 65 1009.8
20260505123814 64 166 2.6 6.1 0.00 0.00 0.00 65 1009.8
20260505123314 64 223 1.7 6.1 0.00 0.00 0.00 65 1009.7
20260505122837 64 211 2.6 6.1 0.00 0.00 0.00 66 1009.7
20260505122319 63 176 1.7 6.1 0.00 0.00 0.00 66 1009.8
20260505121818 63 198 2.6 6.1 0.00 0.00 0.00 67 1009.8
20260505121316 63 217 3.5 6.1 0.00 0.00 0.00 66 1009.7
20260505120817 63 218 3.5 5.2 0.00 0.00 0.00 67 1009.7
20260505120334 63 185 1.7 4.3 0.00 0.00 0.00 69 1009.7
20260505115831 62 196 2.6 5.2 0.00 0.00 0.00 68 1009.7
20260505115314 62 200 2.6 5.2 0.00 0.00 0.00 69 1009.6
20260505114815 61 210 2.6 4.3 0.00 0.00 0.00 69 1009.6
20260505114316 61 219 0.9 4.3 0.00 0.00 0.00 69 1009.6
20260505113817 61 214 2.6 5.2 0.00 0.00 0.00 69 1009.5
20260505113340 62 215 2.6 4.3 0.00 0.00 0.00 68 1009.4
20260505112841 62 203 2.6 6.1 0.00 0.00 0.00 69 1009.4
20260505112321 61 244 1.7 4.3 0.00 0.00 0.00 71 1009.3
20260505111824 61 221 1.7 3.5 0.00 0.00 0.00 72 1009.2